When you browse on this site, cookies collect data to enhance your experience and personalize the content and advertising you see.
Visit our Privacy Policy to learn more. By continuing to use the site, you agree to this use of cookies and data.
EN

Hourly Weather Gojsc

Today, 21 September, Monday

Time Temperature Precipitation Wind Pressure Humidity
00:00 +13°C° 0 mm 2 mps 747 mmHg 76%
01:00 +13°C° 0 mm 2 mps 747 mmHg 80%
02:00 +13°C° 0 mm 2 mps 747 mmHg 81%
03:00 +12°C° 0 mm 2 mps 746 mmHg 82%
04:00 +12°C° 0 mm 2 mps 746 mmHg 82%
05:00 +13°C° 0 mm 1 mps 746 mmHg 80%
06:00 +13°C° 0 mm 1 mps 746 mmHg 77%
07:00 +14°C° 0 mm 1 mps 746 mmHg 75%
08:00 +16°C° 0 mm 1 mps 747 mmHg 67%
09:00 +19°C° 0 mm 1 mps 747 mmHg 59%
10:00 +21°C° 0 mm 1 mps 747 mmHg 51%
11:00 +23°C° 0 mm 1 mps 747 mmHg 47%
12:00 +24°C° 0 mm 1 mps 746 mmHg 42%
13:00 +25°C° 0 mm 1 mps 746 mmHg 37%
14:00 +25°C° 0 mm 1 mps 746 mmHg 38%
15:00 +25°C° 0 mm 1 mps 746 mmHg 39%
16:00 +25°C° 0 mm 1 mps 746 mmHg 40%
17:00 +23°C° 0 mm 1 mps 746 mmHg 44%
18:00 +21°C° 0 mm 1 mps 745 mmHg 48%
19:00 +19°C° 0 mm 2 mps 745 mmHg 52%
20:00 +18°C° 0 mm 2 mps 745 mmHg 54%
21:00 +18°C° 0 mm 2 mps 745 mmHg 56%
22:00 +17°C° 0 mm 2 mps 745 mmHg 58%
23:00 +17°C° 0 mm 2 mps 745 mmHg 58%

Tomorrow, 22 September, Tuesday

Time Temperature Precipitation Wind Pressure Humidity
00:00 +17°C° 0 mm 2 mps 745 mmHg 58%
01:00 +16°C° 0 mm 2 mps 745 mmHg 58%
02:00 +16°C° 0 mm 2 mps 745 mmHg 59%
03:00 +16°C° 0 mm 2 mps 744 mmHg 60%
04:00 +16°C° 0 mm 3 mps 744 mmHg 61%
05:00 +16°C° 0 mm 3 mps 744 mmHg 61%
06:00 +16°C° 0 mm 3 mps 744 mmHg 61%
07:00 +17°C° 0 mm 3 mps 744 mmHg 62%
08:00 +19°C° 0 mm 3 mps 744 mmHg 56%
09:00 +21°C° 0 mm 3 mps 744 mmHg 51%
10:00 +25°C° 0 mm 3 mps 744 mmHg 45%
11:00 +26°C° 0 mm 3 mps 744 mmHg 41%
12:00 +27°C° 0 mm 3 mps 743 mmHg 37%
13:00 +28°C° 0 mm 3 mps 743 mmHg 33%
14:00 +27°C° 0 mm 3 mps 743 mmHg 36%
15:00 +27°C° 0 mm 3 mps 742 mmHg 39%
16:00 +27°C° 0 mm 2 mps 742 mmHg 42%
17:00 +25°C° 0 mm 3 mps 741 mmHg 46%
18:00 +22°C° 0 mm 3 mps 741 mmHg 49%
19:00 +20°C° 0 mm 3 mps 741 mmHg 53%
20:00 +20°C° 0 mm 3 mps 741 mmHg 53%
21:00 +19°C° 0 mm 3 mps 741 mmHg 54%
22:00 +19°C° 0 mm 3 mps 741 mmHg 54%
23:00 +18°C° 0 mm 3 mps 741 mmHg 54%

Day after tomorrow, 23 September, Wednesday

Time Temperature Precipitation Wind Pressure Humidity
00:00 +18°C° 0 mm 2 mps 740 mmHg 54%
01:00 +18°C° 0 mm 2 mps 740 mmHg 54%
02:00 +18°C° 0 mm 2 mps 740 mmHg 54%
03:00 +18°C° 0 mm 3 mps 739 mmHg 54%
04:00 +17°C° 0 mm 3 mps 739 mmHg 55%
05:00 +18°C° 0 mm 3 mps 739 mmHg 55%
06:00 +18°C° 0 mm 3 mps 739 mmHg 55%
07:00 +18°C° 0 mm 3 mps 739 mmHg 55%
08:00 +20°C° 0 mm 3 mps 739 mmHg 50%
09:00 +24°C° 0 mm 3 mps 739 mmHg 46%
10:00 +26°C° 0 mm 4 mps 739 mmHg 41%
11:00 +27°C° 0 mm 4 mps 738 mmHg 39%
12:00 +28°C° 0 mm 4 mps 738 mmHg 38%
13:00 +28°C° 0 mm 4 mps 738 mmHg 37%
14:00 +28°C° 0 mm 3 mps 738 mmHg 40%
15:00 +27°C° 0 mm 3 mps 737 mmHg 44%
16:00 +26°C° 0 mm 3 mps 737 mmHg 47%
17:00 +25°C° 0 mm 3 mps 737 mmHg 51%
18:00 +24°C° 0 mm 2 mps 737 mmHg 55%
19:00 +21°C° 0 mm 2 mps 738 mmHg 60%
20:00 +21°C° 0.1 mm 2 mps 738 mmHg 64%
21:00 +20°C° 0.1 mm 2 mps 738 mmHg 69%
22:00 +19°C° 0.1 mm 2 mps 738 mmHg 74%
23:00 +19°C° 0 mm 2 mps 738 mmHg 75%

24 September, Thursday

Time Temperature Precipitation Wind Pressure Humidity
00:00 +18°C° 0 mm 2 mps 738 mmHg 75%
01:00 +18°C° 0 mm 2 mps 738 mmHg 76%
02:00 +18°C° 0 mm 2 mps 738 mmHg 79%
03:00 +17°C° 0 mm 2 mps 738 mmHg 82%
04:00 +17°C° 0 mm 3 mps 738 mmHg 85%
05:00 +17°C° 0 mm 3 mps 738 mmHg 85%
06:00 +17°C° 0 mm 3 mps 738 mmHg 85%
07:00 +17°C° 0 mm 3 mps 738 mmHg 85%
08:00 +19°C° 0 mm 3 mps 738 mmHg 78%
09:00 +21°C° 0 mm 3 mps 739 mmHg 72%
10:00 +22°C° 0 mm 3 mps 739 mmHg 65%
11:00 +24°C° 0 mm 3 mps 739 mmHg 60%
12:00 +25°C° 0 mm 3 mps 739 mmHg 55%
13:00 +26°C° 0 mm 3 mps 739 mmHg 51%
14:00 +26°C° 0 mm 3 mps 739 mmHg 51%
15:00 +26°C° 0 mm 2 mps 739 mmHg 52%
16:00 +25°C° 0 mm 2 mps 739 mmHg 52%
17:00 +24°C° 0 mm 2 mps 739 mmHg 56%
18:00 +23°C° 0 mm 1 mps 739 mmHg 59%
19:00 +21°C° 0 mm 1 mps 739 mmHg 63%
20:00 +21°C° 0 mm 1 mps 739 mmHg 66%
21:00 +19°C° 0 mm 2 mps 739 mmHg 70%
22:00 +19°C° 0 mm 2 mps 739 mmHg 73%
23:00 +18°C° 0 mm 2 mps 739 mmHg 75%

25 September, Friday

Time Temperature Precipitation Wind Pressure Humidity
00:00 +18°C° 0 mm 2 mps 738 mmHg 77%
01:00 +17°C° 0 mm 3 mps 738 mmHg 79%
02:00 +17°C° 0 mm 3 mps 737 mmHg 80%
03:00 +17°C° 0 mm 3 mps 737 mmHg 81%
04:00 +17°C° 0 mm 3 mps 736 mmHg 81%
05:00 +17°C° 0 mm 4 mps 736 mmHg 80%
06:00 +17°C° 0 mm 4 mps 735 mmHg 79%
07:00 +17°C° 0 mm 5 mps 735 mmHg 77%
08:00 +20°C° 0 mm 5 mps 734 mmHg 70%
09:00 +22°C° 0 mm 6 mps 734 mmHg 62%
10:00 +23°C° 0 mm 7 mps 734 mmHg 54%
11:00 +23°C° 0 mm 7 mps 734 mmHg 55%
12:00 +23°C° 0 mm 7 mps 733 mmHg 55%
13:00 +23°C° 0 mm 7 mps 733 mmHg 56%
14:00 +23°C° 0 mm 7 mps 732 mmHg 59%
15:00 +22°C° 0 mm 6 mps 732 mmHg 62%
16:00 +21°C° 0 mm 5 mps 732 mmHg 65%
17:00 +20°C° 0.9 mm 5 mps 731 mmHg 72%
18:00 +19°C° 0.9 mm 5 mps 731 mmHg 79%
19:00 +17°C° 0.9 mm 6 mps 731 mmHg 86%
20:00 +17°C° 1.2 mm 5 mps 731 mmHg 87%
21:00 +17°C° 1.2 mm 5 mps 731 mmHg 87%
22:00 +17°C° 1.2 mm 5 mps 731 mmHg 88%
23:00 +16°C° 0.8 mm 5 mps 731 mmHg 88%

26 September, Saturday

Time Temperature Precipitation Wind Pressure Humidity
00:00 +15°C° 0.8 mm 6 mps 731 mmHg 87%
01:00 +14°C° 0.8 mm 6 mps 731 mmHg 87%
02:00 +13°C° 0.2 mm 6 mps 732 mmHg 87%
03:00 +13°C° 0.2 mm 6 mps 732 mmHg 87%
04:00 +12°C° 0.2 mm 5 mps 733 mmHg 87%
05:00 +12°C° 0 mm 4 mps 733 mmHg 85%
06:00 +12°C° 0 mm 3 mps 734 mmHg 83%
07:00 +12°C° 0 mm 3 mps 734 mmHg 80%
08:00 +13°C° 0 mm 3 mps 735 mmHg 77%
09:00 +13°C° 0 mm 3 mps 735 mmHg 73%
10:00 +14°C° 0 mm 3 mps 735 mmHg 69%
11:00 +14°C° 0 mm 3 mps 735 mmHg 68%
12:00 +16°C° 0 mm 3 mps 735 mmHg 68%
13:00 +16°C° 0 mm 3 mps 735 mmHg 68%
14:00 +15°C° 0 mm 4 mps 735 mmHg 69%
15:00 +15°C° 0 mm 4 mps 734 mmHg 71%
16:00 +15°C° 0 mm 5 mps 734 mmHg 73%
17:00 +15°C° 0.4 mm 5 mps 734 mmHg 78%
18:00 +14°C° 0.4 mm 5 mps 734 mmHg 83%
19:00 +14°C° 0.4 mm 5 mps 734 mmHg 88%
20:00 +13°C° 1.5 mm 5 mps 734 mmHg 90%
21:00 +13°C° 1.5 mm 5 mps 733 mmHg 92%
22:00 +11°C° 1.5 mm 6 mps 733 mmHg 94%
23:00 +10°C° 1.9 mm 7 mps 733 mmHg 94%
Show more